Skip Page Navigation
NASA JPL Caltech
NASA Logo - Jet Propulsion Laboratory + View the NASA Portal
+ Center for Near-Earth Object Studies
JPL Home Earth Solar System Stars & Galaxies Technology
JPL Solar System Dynamics
BODIES ORBITS EPHEMERIDES TOOLS PHYSICAL DATA DISCOVERY FAQ SITE MAP
JPL Small-Body Database Browser
Search: [ help ]  
215085 (2009 FZ36)
Classification: Main-belt Asteroid          SPK-ID: 2215085
Ephemeris | Orbit Diagram | Orbital Elements | Mission Design | Physical Parameters | Discovery Circumstances | Close-Approach Data ]

[ show orbit diagram ]
Orbital Elements at Epoch 2459000.5 (2020-May-31.0) TDB
Reference: JPL 13 (heliocentric ecliptic J2000)
 Element Value Uncertainty (1-sigma)   Units 
e .1000604540377869 5.1165e-08  
a 2.787281642898447 2.3765e-08 au
q 2.50838497617884 1.4138e-07 au
i 4.042055109086029 5.5889e-06 deg
node 88.5865410230206 6.9572e-05 deg
peri 143.431990721418 7.4145e-05 deg
M 91.11413795741485 2.4301e-05 deg
tp 2458570.317262887647
(2019-Mar-27.81726289)
0.0001152 TDB
period 1699.689958465377
4.65
2.1738e-05
5.952e-08
d
yr
n .2118033340180689 2.7088e-09 deg/d
Q 3.066178309618055 2.6143e-08 au
  Orbit Determination Parameters
   # obs. used (total)      274  
   data-arc span      7097 days (19.43 yr)  
   first obs. used      2000-03-15  
   last obs. used      2019-08-20  
   planetary ephem.      DE431  
   SB-pert. ephem.      SB431-N16  
   condition code      0  
   norm. resid. RMS      .64962  
   source      ORB  
   producer      Otto Matic  
   solution date      2019-Sep-24 04:04:00  

Additional Information
 Earth MOID = 1.49875 au 
 Jupiter MOID = 1.92479 au 
 T_jup = 3.320 
[ show covariance matrix ]

Ephemeris | Orbit Diagram | Orbital Elements | Mission Design | Physical Parameters | Discovery Circumstances | Close-Approach Data ]

Physical Parameter Table
Parameter Symbol Value Units Sigma Reference Notes
absolute magnitude H 16.2   n/a MPO437029  
diameter diameter 2.998 km 0.334 urn:nasa:pds:neowise_diameters_albedos::2.0[mainbelt] (http://adsabs.harvard.edu/abs/2011ApJ...741...68M)  
geometric albedo albedo 0.071   0.007 urn:nasa:pds:neowise_diameters_albedos::2.0[mainbelt] (http://adsabs.harvard.edu/abs/2011ApJ...741...68M)  

215085 (2009 FZ36)          Discovered 2009-Mar-21 by CSS at Catalina
Reference: 20090509/Numbers.arcLast Updated: 2009-05-11

[ show close-approach data ]
Alternate Designations
 2009 FZ36 = 2004 DX77 
Ephemeris | Orbit Diagram | Orbital Elements | Mission Design | Physical Parameters | Discovery Circumstances | Close-Approach Data ]
ABOUT SSD CREDITS/AWARDS PRIVACY/COPYRIGHT GLOSSARY LINKS
FirstGov 2020-Aug-10 06:46 UT
(server date/time)  
NASA Home Page
Site Manager:   Ryan S. Park
Webmaster  Alan B. Chamberlin